Guymon, OK

5:25 PM CDT on August 27, 2016 (GMT -0500)
Guymon Municipal

Weather History for KGUY - May, 2013

Change the Weather History Date:

Tuesday, May 14, 2013

  Actual Average Record
Temperature  
Mean Temperature 78 °F 64 °F  
Max Temperature 93 °F 79 °F 93 °F (2013)
Min Temperature 62 °F 50 °F 34 °F (2004)
Degree Days  
Heating Degree Days 0 3  
Month to date heating degree days 97 63  
Since 1 July heating degree days 4310 4416  
Cooling Degree Days 13 3  
Month to date cooling degree days 25 26  
Year to date cooling degree days 50 41  
Growing Degree Days 26 (Base 50)    
Moisture  
Dew Point 33 °F    
Average Humidity 23    
Maximum Humidity 34    
Minimum Humidity 12    
Precipitation  
Precipitation 0.00 in 0.07 in 0.44 in (2008)
Month to date precipitation 0.13 0.83  
Year to date precipitation 2.32 4.64  
Snow  
Snow 0.00 in - - ()
Month to date snowfall 0.3  
Since 1 July snowfall 22.3  
Snow Depth 0.00 in    
Sea Level Pressure  
Sea Level Pressure 29.80 in    
Wind  
Wind Speed 17 mph (SSW)    
Max Wind Speed 30 mph    
Max Gust Speed 37 mph    
Visibility 10 miles    
Events      
T = Trace of Precipitation, MM = Missing Value Source: NWS Daily Summary

Daily Weather History Graph

Daily Weather History Graph

Search for Another Location

Airport or City:

Trip Planner

Search our weather history database for the weather conditions in past years. The results will help you decide how hot, cold, wet, or windy it might be!

Date:

Astronomy

May. 14, 2013 Rise Set
Actual Time 6:39 AM CDT 8:45 PM CDT
Civil Twilight 6:10 AM CDT 9:14 PM CDT
Nautical Twilight 5:35 AM CDT 9:50 PM CDT
Astronomical Twilight 4:57 AM CDT 10:28 PM CDT
Moon 10:20 AM CDT (5/14) No Moon Set
Length of Visible Light 15h 04m
Length of Day
14h 06m
Waxing Crescent, 19% of the Moon is Illuminated
May 14
Waxing Crescent
May 17
First Quarter
May 24
Full
May 31
Last Quarter
Jun 8
New

Hourly Weather History & Observations

Time (CDT) Temp. Dew Point Humidity Pressure Visibility Wind Dir Wind Speed Gust Speed Precip Events Conditions
12:53 AM 69.1 °F 32.0 °F 25% 29.87 in 10.0 mi SSW 17.3 mph - N/A   Clear
1:53 AM 68.0 °F 32.0 °F 26% 29.87 in 10.0 mi SSW 19.6 mph - N/A   Clear
2:53 AM 66.0 °F 30.9 °F 27% 29.87 in 10.0 mi SSW 18.4 mph - N/A   Clear
3:53 AM 66.0 °F 30.0 °F 26% 29.85 in 10.0 mi SSW 18.4 mph - N/A   Clear
4:53 AM 64.9 °F 28.9 °F 26% 29.85 in 10.0 mi SW 17.3 mph - N/A   Clear
5:53 AM 64.0 °F 28.9 °F 27% 29.86 in 10.0 mi SW 16.1 mph - N/A   Clear
6:53 AM 62.1 °F 28.0 °F 28% 29.87 in 10.0 mi SW 12.7 mph - N/A   Clear
7:53 AM 66.9 °F 28.0 °F 23% 29.88 in 10.0 mi SW 16.1 mph - N/A   Clear
8:53 AM 73.0 °F 30.9 °F 21% 29.88 in 10.0 mi SW 24.2 mph 32.2 mph N/A   Clear
9:53 AM 78.1 °F 37.0 °F 23% 29.88 in 10.0 mi SW 28.8 mph 34.5 mph N/A   Clear
10:53 AM 82.0 °F 39.9 °F 22% 29.86 in 10.0 mi SW 25.3 mph - N/A   Clear
11:53 AM 88.0 °F 39.0 °F 18% 29.83 in 10.0 mi SSW 23.0 mph 31.1 mph N/A   Clear
12:53 PM 90.0 °F 34.0 °F 14% 29.81 in 10.0 mi SSW 19.6 mph 31.1 mph N/A   Clear
1:53 PM 91.0 °F 33.1 °F 13% 29.78 in 10.0 mi SSW 17.3 mph 23.0 mph N/A   Clear
2:53 PM 91.9 °F 34.0 °F 13% 29.77 in 10.0 mi SW 17.3 mph 24.2 mph N/A   Clear
3:53 PM 91.9 °F 33.1 °F 12% 29.74 in 10.0 mi SSW 15.0 mph 25.3 mph N/A   Clear
4:53 PM 91.9 °F 32.0 °F 12% 29.71 in 10.0 mi SSW 18.4 mph 25.3 mph N/A   Clear
5:53 PM 91.0 °F 32.0 °F 12% 29.70 in 10.0 mi South 15.0 mph 21.9 mph N/A   Clear
6:53 PM 90.0 °F 32.0 °F 13% 29.69 in 10.0 mi SSW 19.6 mph - N/A   Clear
7:53 PM 86.0 °F 34.0 °F 16% 29.68 in 10.0 mi South 15.0 mph 21.9 mph N/A   Clear
8:53 PM 80.1 °F 35.1 °F 20% 29.69 in 10.0 mi South 11.5 mph - N/A   Clear
9:53 PM 75.0 °F 35.1 °F 23% 29.71 in 10.0 mi South 9.2 mph - N/A   Clear
10:53 PM 71.1 °F 35.1 °F 27% 29.72 in 10.0 mi South 9.2 mph - N/A   Clear
11:53 PM 64.9 °F 36.0 °F 34% 29.72 in 10.0 mi South 9.2 mph - N/A   Clear